Theta_e
312 312 311 311 311 311 311 312 311 312 312 312 312 312 312 316 319 321 328 323 323 322 321 322 324 326 326 327 328 328 331 332 335 337 338 336 336 335 335 335 336 337 338 338 336
311 311 311 311 311 311 311 312 312 312 312 313 312 312 313 317 320 322 327 326 324 320 321 323 324 325 325 327 328 327 327 332 335 334 336 337 335 335 337 335 333 344 342 341 339
311 311 311 311 311 311 311 312 312 312 312 313 312 312 315 318 322 327 326 324 319 319 322 324 325 326 326 328 329 329 334 335 335 335 335 335 336 336 336 335 334 342 339 340 339
311 312 312 312 312 311 311 311 312 313 312 313 313 314 317 320 327 326 324 320 319 321 324 326 326 326 326 326 331 333 335 336 337 336 336 336 334 336 336 336 338 342 339 335 335
312 313 314 314 312 312 311 311 312 313 312 312 313 315 318 324 327 325 321 318 319 320 323 326 326 326 325 329 333 333 335 334 335 333 335 335 336 337 338 337 343 341 341 340 339
313 314 315 314 313 312 311 311 312 313 312 312 313 316 317 323 323 324 319 319 320 321 326 326 327 328 329 332 331 334 334 335 334 334 335 337 336 338 339 337 345 344 343 343 347
314 314 315 314 313 312 312 312 313 313 312 312 313 316 317 322 323 323 319 320 323 324 325 326 327 327 328 331 333 333 333 333 335 336 333 336 338 341 342 343 344 345 345 346 347
314 314 314 314 313 312 312 312 313 313 312 313 314 318 320 324 322 323 321 322 324 325 325 326 326 327 328 331 333 331 332 333 334 335 335 335 341 340 341 341 344 346 346 345 343
314 314 314 313 312 312 312 313 313 312 313 313 318 325 327 323 320 323 323 322 323 324 326 326 327 328 330 330 330 330 334 334 334 335 336 337 339 336 341 342 344 340 334 344 341
313 313 313 313 312 312 312 313 314 314 313 315 315 321 323 323 325 324 324 325 325 326 327 328 329 326 327 328 330 334 335 335 335 337 333 335 337 336 337 339 334 333 343 342 341
313 313 313 313 312 312 313 317 321 323 319 319 325 321 325 325 326 326 327 328 327 328 328 330 326 326 327 330 331 334 334 335 334 335 337 338 337 336 334 331 335 340 342 341 340
313 313 313 313 312 312 313 319 319 320 320 320 322 322 324 325 326 326 328 328 328 327 329 327 327 329 331 332 331 330 332 332 336 335 336 337 336 335 336 337 336 328 329 340 338
314 313 313 312 312 315 314 317 319 320 321 324 323 323 324 325 326 327 328 328 329 328 329 328 330 332 329 330 331 331 333 335 337 336 335 336 339 334 336 331 333 334 339 338 335
314 314 313 312 317 318 318 320 320 320 322 327 324 323 324 325 327 328 328 328 329 329 329 329 332 331 331 331 328 330 336 336 338 336 338 335 342 335 334 333 330 332 337 334 333
314 314 313 312 315 318 320 320 320 321 333 325 323 324 325 326 328 328 329 328 328 329 329 331 331 331 332 331 330 333 335 335 337 337 338 339 337 337 336 336 335 335 334 333 329
315 314 314 313 312 317 318 319 322 325 332 324 323 324 325 326 327 329 328 328 328 328 328 329 333 332 332 332 332 332 333 336 333 336 341 341 342 340 339 338 335 336 333 331 328
316 314 314 313 320 318 318 321 325 327 329 324 325 324 324 326 327 329 328 327 328 330 330 332 330 329 329 329 329 327 327 331 337 341 343 339 340 340 334 335 334 335 331 328 328
316 314 314 313 315 318 319 324 330 329 328 326 326 324 324 325 326 328 329 327 328 329 331 333 334 332 332 329 329 328 330 334 339 334 339 338 343 339 335 333 334 332 330 329 328
315 316 316 314 313 318 320 327 332 332 330 328 325 322 323 325 326 328 329 329 329 328 335 336 336 333 331 331 332 334 333 331 329 333 336 341 340 338 334 334 333 331 331 329 327
315 314 321 321 319 317 322 327 329 330 330 330 329 325 326 324 325 327 328 330 332 334 334 335 338 336 332 331 332 334 332 333 328 333 341 342 343 341 337 335 333 332 332 330 325
315 323 320 319 318 319 323 326 328 330 329 330 330 331 328 327 326 327 328 328 330 334 334 334 335 337 335 336 334 328 330 331 331 334 336 343 341 337 336 334 332 332 332 327 325
318 326 323 319 319 321 322 325 326 329 328 329 329 331 332 329 327 327 330 335 329 330 333 335 334 337 336 335 334 335 332 330 329 331 336 338 340 336 335 335 332 331 330 328 326
317 322 322 319 318 318 322 324 323 325 328 329 328 331 333 330 329 330 336 333 329 340 337 339 332 334 335 334 336 338 331 332 332 333 336 338 338 334 336 334 333 331 331 328 326
318 327 321 318 318 323 326 330 326 327 328 328 329 329 332 330 330 334 335 334 333 335 334 337 333 337 333 333 332 336 332 331 331 334 331 336 338 338 336 334 333 332 331 326 326
318 326 329 323 321 321 325 330 332 330 327 327 332 329 329 332 333 331 335 335 336 333 335 335 332 333 336 336 332 329 330 331 330 330 334 338 337 335 335 330 333 331 330 326 326
323 328 328 330 321 323 324 330 332 329 330 331 332 334 330 334 333 335 334 334 335 334 338 337 338 338 336 335 335 332 331 332 331 332 337 338 338 335 336 335 333 332 327 326 325
323 323 329 331 330 325 325 331 330 329 329 331 331 332 334 331 329 330 330 333 335 332 336 338 337 336 336 335 337 337 335 333 331 333 334 334 334 332 333 334 332 332 328 326 325
Wind_Speed
9 10 11 12 12 13 14 12 13 14 15 16 18 19 18 16 6 8 4 5 7 8 9 9 12 13 16 27 26 18 2 2 17 11 8 23 4 29 22 9 3 8 26 35 26
9 10 11 12 13 13 14 13 13 14 15 16 18 18 17 16 11 9 8 8 13 11 7 7 12 19 24 26 26 8 5 5 19 20 18 19 23 11 15 18 7 36 38 31 22
9 10 12 13 14 14 14 13 13 14 14 15 17 17 15 15 11 3 3 7 9 3 5 7 13 21 27 28 12 11 12 19 25 31 32 18 15 16 9 6 4 25 30 24 16
8 10 12 14 15 15 14 13 12 13 13 14 16 15 14 10 4 5 10 7 3 6 7 6 12 20 10 11 14 24 28 29 23 28 22 14 14 8 13 15 15 24 22 16 14
8 10 13 15 16 16 15 13 11 12 12 13 13 14 11 7 8 10 11 3 5 7 7 10 17 26 7 13 25 22 27 20 20 30 23 21 25 20 13 23 21 29 26 26 20
8 11 14 16 17 16 15 12 11 11 11 11 11 12 11 5 8 9 5 3 5 4 5 9 16 21 12 14 15 21 26 21 9 2 7 11 15 17 6 23 28 31 30 27 27
9 11 14 16 17 17 14 11 10 10 10 9 10 13 10 10 3 8 7 2 4 3 7 15 18 18 18 6 18 24 13 5 6 4 2 7 8 21 33 36 32 35 30 28 23
10 13 15 16 16 16 13 10 9 9 8 7 9 11 8 5 6 8 5 2 3 7 13 12 14 17 11 6 8 8 4 5 3 3 4 2 4 14 30 32 30 30 27 22 22
11 13 15 16 16 15 12 9 9 7 7 6 5 6 10 4 9 9 8 7 6 10 12 12 12 11 11 2 5 9 1 5 3 9 4 12 11 28 24 33 25 22 14 19 22
11 13 14 15 15 14 11 9 9 8 6 7 8 8 7 5 1 5 8 6 8 8 13 15 9 2 6 3 2 6 2 3 3 6 23 22 19 18 16 22 36 38 12 19 22
11 13 13 14 13 12 8 6 10 4 9 9 4 12 4 4 3 6 5 6 9 13 6 19 2 7 16 8 5 19 6 6 4 20 10 10 17 10 12 30 13 25 14 21 23
10 12 13 13 12 9 5 2 11 11 10 15 22 18 17 5 5 8 10 5 8 7 11 6 8 16 3 6 1 6 4 5 12 13 7 9 6 6 8 9 13 19 13 18 18
11 12 12 11 9 6 5 9 6 10 5 14 16 14 12 10 13 15 16 15 9 9 11 8 13 4 5 7 6 6 9 7 13 13 13 10 8 7 7 3 3 9 16 15 16
10 11 10 9 4 6 8 8 9 6 2 5 9 8 10 15 6 16 17 15 7 13 9 11 5 3 6 8 8 8 13 17 14 4 5 4 3 5 6 9 7 6 10 13 14
10 10 8 7 5 3 6 5 13 2 2 11 11 6 9 10 2 12 17 17 13 15 11 4 5 9 7 5 6 5 15 9 6 7 7 6 5 7 7 6 7 16 7 18 20
11 9 7 6 3 2 6 8 7 2 5 7 8 5 4 17 15 10 14 11 11 11 20 5 17 7 3 7 5 4 6 4 6 5 4 1 4 6 4 8 2 12 13 19 21
11 10 8 8 3 4 8 7 2 3 7 10 8 9 6 8 12 5 6 5 5 6 5 13 3 8 6 4 5 9 6 4 4 4 4 9 5 8 13 10 15 15 18 21 20
12 11 10 10 10 3 3 3 4 9 12 14 12 11 10 11 8 8 7 6 8 5 1 3 7 6 4 4 2 6 4 4 3 4 4 10 0 6 9 24 22 21 19 16 14
12 11 8 3 12 3 5 2 4 5 11 3 14 12 9 8 6 6 6 7 8 8 6 4 5 11 8 3 2 6 5 5 3 1 5 3 4 5 7 16 21 24 19 10 20
12 14 10 1 5 5 0 4 4 8 10 8 4 11 9 12 8 4 5 5 8 2 18 4 3 16 6 3 2 2 4 5 5 3 4 2 5 6 8 7 10 18 20 11 20
13 5 10 13 9 7 3 6 6 2 4 5 7 7 3 7 8 3 5 10 1 7 13 11 6 7 9 4 5 7 5 5 2 3 2 4 3 8 16 7 8 22 18 22 22
6 3 11 10 3 5 4 5 8 3 3 3 4 5 4 4 6 7 3 1 11 8 4 3 5 3 2 6 3 3 5 5 4 6 2 5 4 4 11 13 25 24 19 17 18
4 8 6 12 2 4 9 15 23 21 3 5 3 5 8 3 3 1 5 9 10 6 5 1 2 3 8 6 5 2 4 5 2 2 3 4 1 11 22 27 14 20 16 19 18
4 3 7 15 16 5 7 9 11 7 6 11 4 7 6 4 0 3 3 3 7 6 5 7 3 5 6 6 3 4 5 6 5 3 2 4 7 10 9 11 13 5 15 22 18
4 6 13 4 8 10 10 8 12 6 10 7 6 4 5 3 5 1 6 4 5 3 2 4 2 4 3 8 6 5 4 8 6 5 6 5 7 10 12 19 29 13 15 22 20
5 6 11 15 16 12 9 7 12 8 7 6 6 9 7 4 4 2 5 4 4 2 1 2 0 3 5 8 6 5 6 6 6 9 7 8 5 14 25 25 17 14 27 22 18
9 8 5 11 6 4 6 9 8 13 15 12 10 6 6 11 13 13 8 11 12 8 4 5 3 3 4 10 12 7 3 7 7 6 7 5 5 12 8 19 17 18 24 20 15
Wind_Direction
326 325 324 319 317 313 312 319 321 323 328 334 330 327 328 330 317 295 331 327 319 302 297 271 273 288 290 275 281 265 24 184 104 106 145 99 89 1 359 110 329 82 109 120 131
325 325 326 325 323 319 314 316 319 321 327 333 328 326 330 335 323 270 298 267 300 289 276 257 286 292 278 268 275 203 119 10 103 137 134 141 96 99 329 310 117 84 107 110 89
326 327 332 330 327 323 318 315 316 321 327 332 327 326 330 332 325 301 335 296 298 254 211 261 290 300 291 292 283 20 107 100 114 124 116 117 107 97 351 320 250 113 112 103 91
324 328 333 333 330 327 323 317 316 319 327 331 327 325 331 331 26 337 319 312 250 198 208 295 315 304 298 292 47 72 109 94 111 116 124 135 121 67 178 243 68 127 107 85 135
328 331 332 333 332 331 325 319 314 318 325 329 327 327 343 324 290 325 322 281 206 204 220 287 302 295 304 351 76 94 94 90 127 140 140 130 119 124 219 209 111 94 85 90 99
325 329 330 330 330 330 325 322 312 319 320 327 325 324 329 292 339 330 330 184 174 208 215 290 292 329 16 55 66 98 96 116 116 38 90 120 149 138 108 157 103 101 102 97 93
324 326 326 328 331 330 327 322 313 316 316 325 321 323 297 249 309 322 326 184 156 270 293 317 333 341 333 358 87 129 112 137 138 231 351 43 89 113 127 121 119 97 91 91 102
325 325 326 329 331 329 328 321 313 309 313 315 318 321 266 301 267 243 268 184 214 248 273 302 320 318 306 231 39 70 63 52 143 122 305 27 83 51 103 104 96 89 87 94 94
320 321 325 329 329 330 327 317 305 306 303 294 305 331 276 282 269 194 211 211 244 256 257 282 297 291 306 81 54 18 49 303 314 165 211 50 37 17 31 65 53 108 116 110 90
320 322 325 327 329 331 325 316 317 303 293 283 257 298 263 218 202 190 196 199 233 266 271 264 263 234 299 76 212 153 202 248 168 94 62 62 60 52 70 73 356 325 144 111 103
318 322 325 328 328 331 327 340 345 26 318 242 185 269 269 67 138 189 186 226 223 258 252 271 231 236 228 233 219 182 158 198 103 140 101 105 76 35 99 113 96 82 90 109 108
321 324 327 328 327 331 325 322 26 332 305 275 274 273 263 251 205 217 191 208 219 248 261 313 248 259 155 236 74 47 94 93 70 100 80 82 129 123 48 120 165 128 135 125 112
325 327 329 329 332 6 344 333 355 345 290 292 245 252 246 227 243 209 196 214 235 235 258 233 260 213 290 38 72 50 78 49 118 85 53 87 4 3 333 34 171 28 139 133 109
329 326 326 322 320 333 308 11 348 313 314 250 201 240 244 212 255 209 205 217 243 248 264 262 231 149 65 56 46 62 92 100 158 97 103 309 286 273 285 339 342 266 264 136 110
339 328 320 306 276 284 23 327 327 237 321 153 179 195 197 204 227 203 208 231 257 285 310 258 30 80 83 68 53 154 121 135 110 83 93 12 98 287 340 313 299 299 209 126 124
344 327 312 291 252 351 350 341 316 17 246 165 153 206 163 217 249 215 204 230 292 285 287 230 132 108 90 82 78 295 146 58 74 117 47 241 107 275 235 214 326 273 166 132 119
335 319 294 260 215 8 338 303 352 223 155 146 167 155 195 244 246 209 179 248 230 344 359 343 160 104 82 13 29 16 9 343 17 40 194 146 113 243 218 232 203 202 111 112 103
320 309 285 261 228 29 333 2 244 289 281 162 161 161 194 215 239 254 180 216 270 250 353 80 332 25 71 56 41 305 119 131 288 163 164 158 44 295 198 214 202 132 105 94 101
313 308 280 242 209 207 317 245 233 308 325 81 155 156 209 212 220 219 174 208 240 230 138 143 302 312 72 356 88 304 1 232 187 325 93 75 327 335 161 172 138 119 106 105 119
307 308 269 150 165 172 235 257 278 287 348 8 341 171 186 188 195 215 177 253 252 134 127 33 38 287 174 244 185 237 260 9 2 6 75 358 78 301 269 150 150 128 121 112 116
321 302 130 174 199 197 210 246 304 269 64 337 6 338 276 157 161 234 213 268 72 165 114 153 137 330 57 5 352 356 13 20 94 64 89 149 219 233 231 168 143 137 129 110 109
330 288 183 203 153 215 232 258 266 19 155 304 347 300 288 192 172 203 246 285 133 95 43 26 129 94 197 290 323 335 108 91 106 311 303 115 289 266 129 138 114 114 103 111 109
289 264 206 192 208 247 261 272 277 284 246 181 244 264 317 32 133 57 94 324 74 68 114 18 355 95 343 3 337 292 140 116 144 74 289 98 180 99 86 59 86 121 122 128 125
276 273 184 210 231 289 311 280 266 247 320 324 223 256 331 358 360 86 130 44 53 90 97 89 49 131 173 210 286 257 179 174 118 69 335 56 102 95 111 122 175 148 155 136 127
237 279 337 202 236 233 255 286 298 254 197 268 311 232 267 310 341 54 115 105 86 73 95 101 101 352 287 244 250 321 320 105 90 56 87 132 109 150 163 167 192 143 139 120 117
321 337 326 300 209 199 234 266 271 257 174 202 228 282 218 244 237 317 153 155 184 142 55 35 123 14 288 345 318 229 292 130 124 115 76 96 80 116 148 153 147 168 128 121 118
326 300 321 287 292 195 247 260 273 256 266 171 202 229 244 243 261 285 295 241 173 146 167 133 110 71 293 47 359 329 2 106 109 93 115 95 139 99 140 154 163 150 131 124 122